CALSPHERE 1 1 00900U 64063C 24347.89077715 .00001058 00000-0 10841-2 0 9992 2 00900 90.2114 59.2468 0027226 158.2395 255.5230 13.75662274995596 CALSPHERE 2 1 00902U 64063E 24347.73863503 .00000055 00000-0 69355-4 0 9997 2 00902 90.2275 62.9750 0019430 33.7343 86.7500 13.52837165781707 LCS 1 1 01361U 65034C 24347.63032181 .00000005 00000-0 -43369-3 0 9997 2 01361 32.1449 46.6090 0009795 325.0015 34.9838 9.89307154155267 TEMPSAT 1 1 1512U 65065E 24348.13579424 .00000075 00000-0 13292-3 0 9999 2 1512 89.9655 213.4201 0069685 357.5920 169.7486 13.33546221886600 CALSPHERE 4(A) 1 01520U 65065H 24347.72796557 .00000169 00000-0 30738-3 0 9998 2 01520 89.9339 127.0143 0068608 218.6406 249.6338 13.36143312889067 OPS 5712 (P/L 160) 1 02826U 67053A 24347.89940100 .00011411 00000-0 21116-2 0 9991 2 02826 69.9221 297.7282 0002566 249.0854 111.0013 14.65518623985085 OPS 5712 (P/L 153) 1 2874U 67053H 24348.06637806 .00000116 00000-0 12196-3 0 9999 2 2874 69.9725 216.4679 0008537 211.7298 148.3294 13.96685815930307 SURCAL 150B 1 2909U 67053J 24348.14068611 .00032722 00000-0 27938-2 0 9996 2 2909 69.9329 225.0016 0002870 217.4382 142.6577 14.97539548998159 RIGIDSPHERE 2 (LCS 4) 1 5398U 71067E 24348.10217122 .00001744 00000-0 57620-3 0 9992 2 5398 87.6224 131.7985 0059006 259.8148 99.6392 14.36600227794950